TimePDT,TemperatureF,Dew PointF,Humidity,Sea Level PressureIn,VisibilityMPH,Wind Direction,Wind SpeedMPH,Gust SpeedMPH,PrecipitationIn,Events,Conditions,WindDirDegrees,DateUTC
12:15 AM,44.6,41.0,87,29.63,10.0,SE,10.4,18.4,0.03,,Mostly Cloudy,130,2013-03-20 07:15:00
12:35 AM,44.6,41.0,87,29.62,10.0,SE,9.2,-,0.03,,Overcast,140,2013-03-20 07:35:00
12:55 AM,44.6,41.0,87,29.62,6.0,SE,11.5,-,0.03,,Overcast,140,2013-03-20 07:55:00
1:15 AM,44.6,42.8,93,29.61,5.0,SE,8.1,-,0.01,,Overcast,130,2013-03-20 08:15:00
1:35 AM,44.6,42.8,93,29.61,5.0,SE,9.2,-,0.01,,Overcast,140,2013-03-20 08:35:00
1:55 AM,46.4,42.8,87,29.60,3.0,SE,8.1,-,0.02,,Overcast,140,2013-03-20 08:55:00
2:15 AM,48.2,44.6,87,29.59,5.0,SE,10.4,-,N/A,,Overcast,140,2013-03-20 09:15:00
2:35 AM,48.2,46.4,93,29.58,10.0,SSE,9.2,-,0.01,,Overcast,160,2013-03-20 09:35:00
2:55 AM,48.2,46.4,93,29.56,10.0,SSE,10.4,-,0.02,,Overcast,160,2013-03-20 09:55:00
3:15 AM,51.8,46.4,82,29.55,10.0,SSE,13.8,19.6,0.01,,Overcast,150,2013-03-20 10:15:00
3:35 AM,51.8,46.4,82,29.54,10.0,SSE,16.1,24.2,0.01,,Overcast,150,2013-03-20 10:35:00
3:55 AM,51.8,46.4,82,29.52,10.0,SSE,12.7,29.9,0.02,,Overcast,150,2013-03-20 10:55:00
4:15 AM,51.8,46.4,82,29.52,10.0,SSE,17.3,24.2,0.03,,Overcast,150,2013-03-20 11:15:00
4:35 AM,51.8,48.2,88,29.51,5.0,SSE,12.7,21.9,0.06,,Overcast,160,2013-03-20 11:35:00
4:55 AM,51.8,48.2,88,29.50,9.0,SSE,18.4,29.9,0.07,,Overcast,150,2013-03-20 11:55:00
5:15 AM,51.8,48.2,88,29.49,9.0,SSE,13.8,26.5,0.02,,Overcast,160,2013-03-20 12:15:00
5:35 AM,51.8,48.2,88,29.48,9.0,SSE,13.8,25.3,0.02,,Overcast,150,2013-03-20 12:35:00
5:55 AM,53.6,48.2,82,29.49,10.0,SSE,13.8,25.3,0.02,,Overcast,150,2013-03-20 12:55:00
6:15 AM,51.8,48.2,88,29.48,10.0,SSE,11.5,23.0,0.01,,Overcast,150,2013-03-20 13:15:00
6:35 AM,51.8,48.2,88,29.48,8.0,SSE,16.1,24.2,0.04,,Overcast,150,2013-03-20 13:35:00
6:55 AM,51.8,48.2,88,29.48,9.0,SSE,13.8,20.7,0.07,,Overcast,150,2013-03-20 13:55:00
7:15 AM,51.8,48.2,88,29.48,9.0,SSE,11.5,19.6,0.03,,Overcast,160,2013-03-20 14:15:00
7:35 AM,51.8,48.2,88,29.48,10.0,SSE,16.1,23.0,0.04,,Overcast,150,2013-03-20 14:35:00
7:55 AM,51.8,48.2,88,29.49,8.0,South,13.8,18.4,0.05,,Overcast,180,2013-03-20 14:55:00
8:15 AM,51.8,48.2,88,29.53,5.0,WSW,11.5,17.3,0.10,,Overcast,240,2013-03-20 15:15:00
8:55 AM,50.0,42.8,76,29.57,10.0,SSW,10.4,17.3,0.10,,Overcast,210,2013-03-20 15:55:00
9:15 AM,48.2,42.8,82,29.60,5.0,SW,9.2,16.1,N/A,,Overcast,220,2013-03-20 16:15:00
9:35 AM,48.2,42.8,82,29.62,10.0,SW,9.2,-,N/A,,Overcast,220,2013-03-20 16:35:00
9:55 AM,50.0,41.0,71,29.63,10.0,SSW,12.7,18.4,N/A,,Overcast,200,2013-03-20 16:55:00
10:15 AM,51.8,42.8,71,29.64,10.0,SSW,9.2,20.7,N/A,,Mostly Cloudy,200,2013-03-20 17:15:00
10:35 AM,51.8,41.0,67,29.66,10.0,South,12.7,-,N/A,,Scattered Clouds,190,2013-03-20 17:35:00
10:55 AM,51.8,41.0,67,29.68,10.0,SSW,13.8,21.9,N/A,,Scattered Clouds,210,2013-03-20 17:55:00
11:15 AM,51.8,41.0,67,29.69,10.0,SSW,12.7,20.7,N/A,,Mostly Cloudy,200,2013-03-20 18:15:00
11:35 AM,50.0,39.2,66,29.71,10.0,SSW,10.4,21.9,N/A,,Mostly Cloudy,200,2013-03-20 18:35:00
11:55 AM,48.2,42.8,82,29.72,7.0,SW,10.4,17.3,0.01,,Mostly Cloudy,220,2013-03-20 18:55:00
12:15 PM,48.2,41.0,76,29.74,7.0,SW,10.4,18.4,0.01,,Overcast,230,2013-03-20 19:15:00
12:35 PM,46.4,39.2,76,29.76,10.0,South,10.4,20.7,0.02,,Mostly Cloudy,190,2013-03-20 19:35:00
12:55 PM,50.0,42.8,76,29.77,10.0,South,8.1,-,0.02,,Overcast,190,2013-03-20 19:55:00
1:15 PM,51.8,41.0,67,29.78,10.0,SSW,9.2,23.0,N/A,,Overcast,200,2013-03-20 20:15:00
1:35 PM,48.2,39.2,71,29.80,10.0,WSW,10.4,18.4,0.01,,Overcast,240,2013-03-20 20:35:00
1:55 PM,46.4,39.2,76,29.81,10.0,West,10.4,-,0.02,,Overcast,260,2013-03-20 20:55:00
2:15 PM,50.0,39.2,66,29.82,10.0,WSW,11.5,18.4,N/A,,Overcast,240,2013-03-20 21:15:00
2:35 PM,48.2,39.2,71,29.82,10.0,WSW,6.9,17.3,N/A,,Overcast,240,2013-03-20 21:35:00
2:55 PM,44.6,39.2,81,29.84,7.0,WSW,10.4,25.3,0.06,,Overcast,250,2013-03-20 21:55:00
3:15 PM,46.4,39.2,76,29.85,10.0,WSW,9.2,-,0.01,,Overcast,240,2013-03-20 22:15:00
3:35 PM,46.4,39.2,76,29.86,10.0,West,4.6,-,0.01,,Overcast,260,2013-03-20 22:35:00
3:55 PM,44.6,37.4,76,29.89,7.0,West,9.2,19.6,0.03,,Overcast,260,2013-03-20 22:55:00
4:15 PM,48.2,39.2,71,29.89,10.0,WSW,10.4,16.1,N/A,,Mostly Cloudy,240,2013-03-20 23:15:00
4:35 PM,44.6,37.4,76,29.91,7.0,West,12.7,20.7,0.01,,Mostly Cloudy,280,2013-03-20 23:35:00
4:55 PM,44.6,39.2,81,29.92,9.0,West,5.8,-,0.01,,Mostly Cloudy,280,2013-03-20 23:55:00
5:15 PM,44.6,37.4,76,29.94,10.0,West,10.4,17.3,0.01,,Mostly Cloudy,280,2013-03-21 00:15:00
5:35 PM,44.6,35.6,71,29.96,10.0,West,15.0,21.9,0.01,,Overcast,280,2013-03-21 00:35:00
5:55 PM,44.6,35.6,71,29.96,10.0,West,12.7,20.7,0.01,,Mostly Cloudy,260,2013-03-21 00:55:00
6:15 PM,44.6,35.6,71,29.97,10.0,West,10.4,21.9,N/A,,Mostly Cloudy,270,2013-03-21 01:15:00
6:35 PM,42.8,35.6,76,29.99,10.0,West,8.1,17.3,N/A,,Overcast,270,2013-03-21 01:35:00
6:55 PM,42.8,35.6,76,29.99,10.0,WSW,5.8,-,0.01,,Mostly Cloudy,250,2013-03-21 01:55:00
7:15 PM,42.8,35.6,76,30.00,9.0,West,6.9,-,N/A,,Mostly Cloudy,270,2013-03-21 02:15:00
7:35 PM,42.8,33.8,70,30.01,10.0,West,3.5,-,N/A,,Scattered Clouds,260,2013-03-21 02:35:00
7:55 PM,39.2,33.8,81,30.04,6.0,WSW,17.3,20.7,0.04,,Mostly Cloudy,240,2013-03-21 02:55:00
8:15 PM,39.2,33.8,81,30.05,9.0,West,4.6,-,0.01,,Overcast,280,2013-03-21 03:15:00
8:35 PM,39.2,33.8,81,30.05,10.0,SSW,6.9,-,0.01,,Mostly Cloudy,210,2013-03-21 03:35:00
8:55 PM,39.2,32.0,75,30.06,10.0,Calm,Calm,-,0.02,,Overcast,0,2013-03-21 03:55:00
9:15 PM,39.2,33.8,81,30.07,10.0,East,3.5,-,N/A,,Overcast,80,2013-03-21 04:15:00
9:35 PM,39.2,35.6,87,30.09,10.0,Calm,Calm,-,N/A,,Overcast,0,2013-03-21 04:35:00
9:55 PM,39.2,35.6,87,30.10,10.0,SE,3.5,-,N/A,,Overcast,140,2013-03-21 04:55:00
10:15 PM,39.2,33.8,81,30.12,7.0,WSW,4.6,-,0.03,,Overcast,250,2013-03-21 05:15:00
10:35 PM,39.2,33.8,81,30.12,10.0,Calm,Calm,-,0.03,,Mostly Cloudy,0,2013-03-21 05:35:00
11:15 PM,39.2,35.6,87,30.15,7.0,NNE,4.6,-,0.02,,Overcast,20,2013-03-21 06:15:00
11:35 PM,37.4,33.8,87,30.15,5.0,ESE,5.8,-,0.04,,Overcast,110,2013-03-21 06:35:00
11:55 PM,37.4,33.8,87,30.15,10.0,SSE,6.9,-,0.04,,Mostly Cloudy,150,2013-03-21 06:55:00